GW1682 Weather Reports


time (UTC)temp
C
wind
direction
speed
KPH
gust
KPH
rain 1hr
cm
rain 24hr
cm
rain mn
cm
humidity
%
barometer
mb
20260510214234 18 158 0.0 0.0 0.00 0.00 0.00 69 1013.9
20260510211233 18 159 0.0 0.0 0.00 0.00 0.00 69 1014.0
20260510205735 19 148 0.0 0.0 0.00 0.00 0.00 68 1013.9
20260510204232 19 157 0.0 0.0 0.00 0.00 0.00 68 1013.9
20260510202738 19 164 0.0 1.6 0.00 0.00 0.00 68 1014.0
20260510201233 19 149 0.0 3.2 0.00 0.00 0.00 68 1014.0
20260510195733 19 155 1.6 3.2 0.00 0.00 0.00 68 1014.2
20260510194230 20 145 0.0 0.0 0.00 0.00 0.00 69 1014.3
20260510192732 20 90 0.0 0.0 0.00 0.00 0.00 68 1014.1
20260510191230 20 42 0.0 0.0 0.00 0.00 0.00 68 1014.2
20260510185737 20 6 0.0 0.0 0.00 0.00 0.00 68 1014.0
20260510184230 20 1 0.0 0.0 0.00 0.00 0.00 67 1013.9
20260510182730 20 255 0.0 0.0 0.00 0.00 0.00 66 1013.9
20260510181230 20 316 0.0 0.0 0.00 0.00 0.00 66 1013.9
20260510175730 21 289 0.0 0.0 0.00 0.00 0.00 65 1013.8
20260510172729 21 269 0.0 0.0 0.00 0.00 0.00 65 1013.8
20260510171228 21 275 0.0 1.6 0.00 0.00 0.00 65 1013.7
20260510164223 21 245 0.0 3.2 0.00 0.00 0.00 64 1013.5
20260510162730 21 247 0.0 3.2 0.00 0.00 0.00 63 1013.6
20260510161226 21 234 0.0 6.4 0.00 0.00 0.00 62 1013.7
20260510155805 22 244 1.6 6.4 0.00 0.00 0.00 61 1014.0
20260510154226 22 248 1.6 9.7 0.00 0.00 0.00 61 1014.2
20260510152748 22 206 1.6 6.4 0.00 0.00 0.00 60 1014.2
20260510151229 22 230 0.0 6.4 0.00 0.00 0.00 60 1014.1
20260510144226 22 254 3.2 9.7 0.00 0.00 0.00 60 1014.4
20260510142744 23 266 4.8 16.1 0.00 0.00 0.00 60 1014.5
20260510141226 22 219 3.2 17.7 0.00 0.00 0.00 62 1013.9
20260510135731 22 183 3.2 9.7 0.00 0.00 0.00 63 1014.0
20260510134229 23 234 3.2 8.0 0.00 0.00 0.00 61 1014.0
20260510132726 23 306 3.2 11.3 0.00 0.00 0.00 60 1014.1
20260510131225 23 238 1.6 4.8 0.00 0.00 0.00 59 1014.1
20260510124228 23 169 1.6 11.3 0.00 0.00 0.00 60 1015.1
20260510122726 23 240 1.6 9.7 0.00 0.00 0.00 59 1015.5
20260510121223 24 268 4.8 11.3 0.00 0.00 0.00 56 1015.6
20260510115724 25 299 3.2 11.3 0.00 0.00 0.00 54 1015.6
20260510112724 25 257 3.2 11.3 0.00 0.00 0.00 53 1015.6
20260510111221 25 250 3.2 11.3 0.00 0.00 0.00 53 1015.5
20260510105726 25 188 3.2 9.7 0.00 0.00 0.00 54 1015.4
20260510105541 -17 245 3.2 9.7 0.00 0.00 0.00 1015.3
20260510104807 25 188 4.8 9.7 0.00 0.00 0.00 56 1015.5
20260510103305 24 227 1.6 8.0 0.00 0.00 0.00 55 1015.6
20260510100305 24 259 3.2 9.7 0.00 0.00 0.00 56 1016.0
20260510094806 24 221 3.2 9.7 0.00 0.00 0.00 56 1016.2
20260510090308 23 199 3.2 6.4 0.00 0.00 0.00 60 1016.3
20260510084806 23 265 1.6 6.4 0.00 0.00 0.00 62 1016.2
20260510083304 22 209 3.2 9.7 0.00 0.00 0.00 61 1016.2
20260510081803 23 272 3.2 11.3 0.00 0.00 0.00 61 1016.2
20260510080305 22 235 3.2 8.0 0.00 0.00 0.00 62 1016.1
20260510074805 22 212 1.6 6.4 0.00 0.00 0.00 61 1015.6
20260510073302 22 219 1.6 4.8 0.00 0.00 0.00 61 1015.4
20260510071803 22 243 1.6 6.4 0.00 0.00 0.00 61 1015.5
20260510070305 21 250 1.6 4.8 0.00 0.00 0.00 61 1015.4
20260510063301 21 254 0.0 4.8 0.00 0.00 0.00 65 1015.3
20260510061757 20 279 1.6 4.8 0.00 0.00 0.00 67 1015.4
20260510060304 20 183 1.6 4.8 0.00 0.00 0.00 68 1015.4
20260510054803 20 245 0.0 3.2 0.00 0.00 0.00 70 1015.3
20260510050259 18 159 0.0 0.0 0.00 0.00 0.00 72 1014.6
20260510044752 18 155 0.0 0.0 0.00 0.00 0.00 73 1014.8
20260510043252 17 180 0.0 0.0 0.00 0.00 0.00 72 1014.9
20260510041800 17 180 0.0 0.0 0.00 0.00 0.00 71 1014.7
20260510034804 17 169 0.0 0.0 0.00 0.00 0.00 72 1014.3
20260510033257 17 151 0.0 0.0 0.00 0.00 0.00 72 1014.2
20260510031758 17 151 0.0 0.0 0.00 0.00 0.00 71 1014.2
20260510030256 17 149 0.0 0.0 0.00 0.00 0.00 70 1014.2
20260510020255 17 154 0.0 0.0 0.00 0.00 0.00 71 1013.8
20260510014802 17 148 0.0 0.0 0.00 0.00 0.00 71 1013.8
20260510013255 17 144 0.0 0.0 0.00 0.00 0.00 71 1013.9
20260510011754 17 144 0.0 0.0 0.00 0.00 0.00 70 1013.9
20260510003254 18 161 0.0 0.0 0.00 0.00 0.00 69 1013.7
20260510001822 18 152 0.0 0.0 0.00 0.00 0.00 68 1013.7
20260510000305 18 176 0.0 0.0 0.00 0.00 0.00 67 1014.0
20260509234757 18 159 0.0 0.0 0.00 0.00 0.00 66 1014.0
20260509231752 18 166 0.0 0.0 0.00 0.00 0.00 65 1014.1
20260509230250 18 152 0.0 0.0 0.00 0.00 0.00 64 1014.2
20260509221751 18 0 0.0 3.2 0.00 0.00 0.00 67 1014.4
20260509220250 18 159 0.0 3.2 0.00 0.00 0.00 66 1014.5